DELTA 1 DEB, 10178

Orbit data source: Space-Track

DELTA 1 DEB, 10178 is space debris in LEO originally from a launch on Thu, 14 Jul 1977 UTC launched from the Air Force Eastern Test Range (AFETR). Debris objects in space refer to the collection of defunct objects orbiting the Earth. Examples of debris include non-operational satellites, rocket bodies, and fragments generated from explosions, collisions, or faulty payload assembly.

Loading next visibility...
Identifier
10178, 1977-065G
Orbit
LEO
Country
Flag of USUS
Related business
Manufacturer
Unknown
Mission
Spacecraft
Bus & Motor
Unknown
Mass
Unknown
Launch date (UTC)
1977-07-14 (48 years ago)
Launch vehicle
Unknown
Launch site
Air Force Eastern Test Range (AFETR)
Object type
Payload
Rocket body
Debris
Shape & HBR
Unknown shape, 1.1 m
Radar Cross Section
Small (<0.1 m²)

Expand to show TLE details & history
Last TLE update: 1 week ago

TLE from 1 week ago
0 DELTA 1 DEB
1 10178U 77065G   25342.19813146 -.00000365  00000-0 -13160-2 0  9990
2 10178  28.7127 290.7780 0910444 174.0551 319.8638 12.09258679987274
Epoch: 2025-12-08T04:45Z
TLE epoch observation values (Epoch: 2025-12-08T04:45:18.558Z)
Latitude
22.79194°
Longitude
-87.49033°
Altitude
1,110.831 km
Speed
7.536 km/s
True Right ascension
04h 04m 09s
True Declination
22° 40' 31"
Sunlit
Object was in full shadow at epoch
Visualization orbit readout
Latitude
Unknown
Longitude
Unknown
Altitude
Unknown
Speed
Unknown
Apparent Right ascension
Unknown
Apparent Declination
Unknown
Sunlit
N/A
Visualization observer readout
Local Sidereal Time
20:57:00
Azimuth
Unknown
Elevation
Unknown
Doppler factor
Unknown
Orbital elements
Apogee altitude
2,373.623 km
Perigee altitude
913.006 km
Semi-major axis
8,021.451 km
Eccentricity
0.09104
Inclination
28.7127°
RAAN
290.778°
Arg. of periapsis
174.0551°
True anomaly
312.52087°
Mean anomaly
319.8638°
Eccentric anomaly
316.25701°
Mean motion
3.02109 °/min
Orbital period
119.16 mins
BSTAR
-0.001316
Loading maneuver chart data...
Computing Atmospheric mass density...
Loading historical data...
Loading historical data...
Loading historical data...
Loading historical data...
Loading historical data...
Loading historical data...
Loading historical data...

Documentation

Showing up to 5 results
|